www.pogodaiklimat.ru

Погода и климат >> Архив погоды >> Австралия >> Carnarvon Airport


ПОГОДА в Carnarvon Airport

  • Прогноз погоды в Carnarvon Airport
  • Монитор погоды в Carnarvon Airport
  • Климат города

АРХИВ ПОГОДЫ в Carnarvon Airport

Время (UTC), дата Ветер
(напр.,м/с)
 
Видим.   Явления Облачность Т
(С)
Тd
(С)
f
(%)
Тe
(С)
Тes
(С)
Комфортность P
(гПа)
Po
(гПа)
Тmin
(С)
Tmax
(С)
R
(мм)
R24
(мм)
S
(см)
04 13.01 В 9 н/о н/о +41.5 +15.3 22 +43 +43 опасность
перегрева
1002.4 1001.9
06 13.01 В 10 н/о н/о +41.6 +14.7 21 +42 +42 опасность
перегрева
1001.0 1000.0
07 13.01 ЮВ 10 н/о 3/0
[]
+40.1 +14.2 22 +41 +41 опасность
перегрева
1000.3 999.8
09 13.01 ЮВ 9 н/о н/о +39.5 +12.9 21 +39 +39 очень
жарко
999.7 998.7
10 13.01 ЮВ 10 н/о 5/0
[]
+39.6 +12.6 20 +39 +39 очень
жарко
999.7 999.2
12 13.01 ЮВ 8 н/о н/о +37.8 +14.7 25 +39 +39 очень
душно
1001.2 1000.2
13 13.01 ЮВ 8 н/о 8/0
[]
+36.4 +16.0 30 +38 +38 очень
душно
1001.9 1001.4 +42.7
15 13.01 В 7 н/о н/о +34.5 +17.9 37 +38 +38 очень
душно
1002.3 1001.3
16 13.01 В 9 н/о 10/0
[]
+33.9 +18.2 39 +38 +38 очень
душно
1001.9 1001.4
18 13.01 ЮВ 8 н/о н/о +32.2 +19.3 46 +38 +38 очень
душно
1001.6 1000.6
19 13.01 ЮВ 7 н/о 8/0
[]
+31.6 +19.6 49 +37 +37 очень
душно
1001.6 1001.1
21 13.01 Ю 5 н/о н/о +30.3 +20.0 54 +37 +37 очень
душно
1001.6 1000.6
22 13.01 Ю 6 н/о 1/1 1000 м
[]
+28.2 +22.8 73 +38 +38 очень
душно
1001.8 1001.3
00 14.01 ЮВ 8 н/о н/о +30.9 +21.4 57 +39 +39 очень
душно
1002.7 1001.7
01 14.01 Ю 8 н/о н/о +31.1 +21.8 58 +40 +40 очень
душно
1003.1 1002.6 +28.2
03 14.01 Ю 8 н/о н/о +30.9 +22.6 61 +40 +40 очень
душно
1004.0 1003.0
04 14.01 Ю 7 н/о 10/10 1000 м
[]
+30.8 +22.6 62 +40 +40 очень
душно
1003.9 1003.4
06 14.01 Ю 7 н/о н/о +30.0 +30.0 100 +55 +55 опасность
перегрева
1003.2 1002.2
07 14.01 ЮЗ 5 н/о 6/0
[]
+30.1 +30.1 100 +56 +62 опасность
перегрева
1003.3 1002.8
09 14.01 З 6 н/о н/о +29.4 +29.3 99 +52 +52 опасность
перегрева
1003.3 1002.3
10 14.01 З 7 н/о н/о +28.7 +28.7 100 +49 +49 опасность
перегрева
1003.7 1003.2
12 14.01 З 6 н/о н/о +26.9 +26.9 100 +42 +42 опасность
перегрева
1005.3 1004.3
13 14.01 З 6 н/о н/о +26.7 +26.7 100 +41 +41 опасность
перегрева
1006.1 1005.6 +37.9
15 14.01 З 5 н/о н/о +25.9 +25.9 100 +38 +38 очень
душно
1006.6 1005.6
16 14.01 СЗ 4 н/о н/о +25.9 +25.9 100 +38 +38 очень
душно
1006.9 1006.4
18 14.01 СЗ 4 н/о н/о +25.8 +25.8 100 +38 +38 очень
душно
1006.2 1005.2
19 14.01 СЗ 3 н/о 8/8 300 м
[]
+25.8 +25.8 100 +38 +38 очень
душно
1006.1 1005.6
21 14.01 СЗ 4 н/о н/о +25.9 +25.9 100 +38 +38 очень
душно
1006.3 1005.3
22 14.01 СЗ 3 н/о 10/10 300 м
[]
+26.3 +26.2 99 +39 +39 очень
душно
1006.7 1006.2
00 15.01 С 6 н/о н/о +29.3 +28.9 98 +51 +51 опасность
перегрева
1007.6 1006.6
01 15.01 С 7 20 км 9/5
[Sc Cs]
+30.1 +30.1 100 +56 +57 опасность
перегрева
1007.8 1007.3 +25.7
03 15.01 СЗ 9 н/о н/о +30.7 +23.0 64 +41 +41 опасность
перегрева
1007.6 1006.6
04 15.01 СЗ 9 н/о н/о +30.4 +23.1 65 +41 +41 опасность
перегрева
1007.2 1006.7
06 15.01 СЗ 8 н/о н/о +29.9 +24.0 71 +41 +41 опасность
перегрева
1006.9 1005.9
07 15.01 З 7 25 км 10/8 300 м
[Cu med, cong Cs]
+29.5 +24.2 73 +41 +42 опасность
перегрева
1006.5 1006.0
09 15.01 ЮЗ 6 н/о н/о +28.6 +23.4 73 +39 +39 очень
душно
1005.7 1004.7
10 15.01 ЮЗ 6 н/о н/о +27.5 +23.4 78 +37 +37 очень
душно
1005.5 1005.0
12 15.01 ЮЗ 5 н/о н/о +25.8 +23.2 86 +35 +35 очень
душно
1006.2 1005.2
13 15.01 ЮЗ 5 н/о н/о +25.6 +22.8 85 +34 +34 очень
душно
1006.7 1006.2 +32.3
15 15.01 ЮЗ 4 н/о н/о +25.2 +22.7 86 +33 +33 очень
душно
1007.6 1006.6
16 15.01 ЮЗ 4 н/о 6/6 300 м
[]
+25.1 +22.3 84 +33 +33 очень
душно
1007.0 1006.5
18 15.01 ЮЗ 4 н/о н/о +24.8 +22.1 85 +32 +32 очень
душно
1006.5 1005.5
19 15.01 ЮЗ 4 н/о 9/9 300 м
[]
+24.8 +22.0 84 +32 +32 очень
душно
1006.3 1005.8
21 15.01 ЮЗ 3 н/о н/о +24.8 +21.5 82 +32 +32 очень
душно
1006.7 1005.7
22 15.01 Ю 3 н/о 10/10 300 м
[]
+24.8 +21.5 82 +32 +32 очень
душно
1007.2 1006.7
00 16.01 ЮЗ 3 н/о н/о +25.6 +21.2 77 +32 +32 очень
душно
1007.6 1006.6
01 16.01 Ю 3 24 км 10/10 600 м
[Sc]
+26.5 +20.9 71 +33 +33 очень
душно
1007.9 1007.4 +24.8
03 16.01 ЮЗ 5 н/о н/о +28.5 +20.3 61 +35 +35 очень
душно
1007.8 1006.8
04 16.01 ЮЗ 5 н/о н/о +29.1 +20.7 61 +36 +36 очень
душно
1007.4 1006.9
06 16.01 ЮЗ 8 н/о н/о +28.3 +21.4 66 +36 +36 очень
душно
1006.8 1005.8
07 16.01 ЮЗ 8 27 км 3/1
[Sc Ac trans]
+29.4 +22.0 64 +38 +40 очень
душно
1006.2 1005.7
09 16.01 ЮЗ 9 н/о н/о +27.9 +22.0 70 +36 +36 очень
душно
1005.4 1004.4
10 16.01 ЮЗ 9 н/о н/о +27.2 +21.3 70 +34 +34 очень
душно
1005.5 1005.0
12 16.01 ЮЗ 8 н/о н/о +25.3 +21.7 80 +32 +32 очень
душно
1006.5 1005.5
13 16.01 ЮЗ 8 н/о 4/4 300 м
[]
+25.1 +21.5 80 +32 +32 очень
душно
1007.4 1006.9 +30.2
15 16.01 Ю 8 н/о н/о +24.9 +20.8 78 +31 +31 очень
душно
1008.2 1007.2
16 16.01 Ю 7 н/о 9/9 300 м
[]
+24.7 +20.7 78 +31 +31 очень
душно
1007.8 1007.3
18 16.01 Ю 6 н/о н/о +24.6 +20.3 77 +30 +30 очень
душно
1007.4 1006.4
19 16.01 Ю 5 н/о 9/9 300 м
[]
+24.7 +20.6 78 +31 +31 очень
душно
1007.8 1007.3
21 16.01 ЮВ 4 н/о н/о +24.7 +20.1 76 +30 +30 очень
душно
1007.1 1006.1
22 16.01 Ю 4 н/о 10/10 600 м
[]
+24.8 +19.9 74 +30 +30 душно 1007.6 1007.1
00 17.01 Ю 3 н/о н/о +26.0 +19.7 68 +32 +32 очень
душно
1008.5 1007.5
01 17.01 ЮЗ 4 22 км 9/9 600 м
[Sc]
+27.4 +19.4 62 +33 +34 очень
душно
1008.5 1008.0 +24.5
03 17.01 ЮЗ 6 н/о н/о +27.8 +20.5 65 +35 +35 очень
душно
1007.6 1006.6
04 17.01 Ю 8 н/о н/о +27.7 +20.1 63 +34 +34 очень
душно
1007.3 1006.8
06 17.01 ЮЗ 8 н/о н/о +28.8 +19.6 58 +35 +35 очень
душно
1006.8 1005.8
07 17.01 ЮЗ 9 н/о н/о +29.1 +19.6 57 +35 +35 очень
душно
1006.2 1005.7
09 17.01 ЮЗ 9 н/о н/о +28.0 +21.1 66 +35 +35 очень
душно
1005.7 1004.7
10 17.01 Ю 9 н/о н/о +27.4 +21.1 69 +35 +35 очень
душно
1005.7 1005.2
12 17.01 Ю 11 н/о н/о +25.2 +21.4 79 +32 +32 очень
душно
1006.8 1005.8
13 17.01 Ю 11 н/о 1/1 300 м
[]
+25.0 +21.5 81 +32 +32 очень
душно
1007.4 1006.9 +30.5
15 17.01 Ю 10 н/о н/о +24.5 +20.2 77 +30 +30 очень
душно
1008.1 1007.1
16 17.01 Ю 9 н/о 6/6 300 м
[]
+24.3 +20.1 77 +30 +30 очень
душно
1008.1 1007.6
18 17.01 Ю 8 н/о н/о +24.3 +20.3 78 +30 +30 очень
душно
1007.7 1006.7
19 17.01 Ю 8 н/о 10/10 300 м
[]
+24.2 +20.4 79 +30 +30 очень
душно
1007.9 1007.4
21 17.01 Ю 7 н/о н/о +24.1 +19.6 76 +29 +29 душно 1008.2 1007.2
22 17.01 Ю 7 н/о 9/9 600 м
[]
+24.1 +20.1 78 +30 +30 очень
душно
1008.3 1007.8
00 18.01 Ю 9 н/о н/о +25.6 +20.1 72 +32 +32 очень
душно
1008.4 1007.4
01 18.01 Ю 10 25 км 9/9 300 м
[Sc]
+26.4 +20.1 68 +32 +32 очень
душно
1008.6 1008.1 +23.9
03 18.01 Ю 10 н/о н/о +26.9 +20.2 67 +33 +33 очень
душно
1008.4 1007.4
04 18.01 Ю 11 н/о н/о +27.3 +20.3 66 +34 +34 очень
душно
1007.9 1007.4
06 18.01 Ю 9 н/о н/о +29.9 +19.9 55 +36 +36 очень
душно
1006.9 1005.9
07 18.01 ЮЗ 9 29 км 4/3
[Cu med, cong Ci sp]
+29.5 +21.0 60 +37 +38 очень
душно
1006.7 1006.2
09 18.01 ЮЗ 10 н/о н/о +28.0 +21.1 66 +35 +35 очень
душно
1005.8 1004.8
10 18.01 ЮЗ 11 н/о н/о +27.5 +21.2 69 +35 +35 очень
душно
1005.8 1005.3
12 18.01 Ю 9 н/о н/о +26.0 +21.5 76 +33 +33 очень
душно
1007.2 1006.2
13 18.01 Ю 9 н/о н/о +25.6 +19.9 71 +31 +31 очень
душно
1008.0 1007.5 +31.3
15 18.01 Ю 9 н/о н/о +24.6 +20.8 79 +31 +31 очень
душно
1008.3 1007.3
16 18.01 Ю 9 н/о н/о +24.5 +20.8 80 +31 +31 очень
душно
1008.0 1007.5
18 18.01 Ю 8 н/о н/о +24.4 +21.4 83 +31 +31 очень
душно
1007.7 1006.7
19 18.01 Ю 8 н/о н/о +24.1 +20.6 81 +30 +30 очень
душно
1007.4 1006.9
21 18.01 Ю 7 н/о н/о +23.6 +20.5 83 +29 +29 душно 1007.3 1006.3
22 18.01 Ю 7 н/о н/о +23.6 +21.0 85 +30 +30 очень
душно
1007.6 1007.1
00 19.01 Ю 8 н/о н/о +26.6 +20.7 70 +33 +33 очень
душно
1008.0 1007.0
01 19.01 Ю 7 25 км 3/1
[Cu hum Ci fib]
+29.2 +20.1 58 +36 +38 очень
душно
1007.7 1007.2 +23.6
03 19.01 Ю 9 н/о н/о +29.3 +22.1 65 +38 +38 очень
душно
1007.1 1006.1
04 19.01 ЮЗ 9 н/о н/о +29.3 +21.9 64 +38 +38 очень
душно
1006.6 1006.1
06 19.01 ЮЗ 9 н/о н/о +30.3 +21.5 59 +38 +38 очень
душно
1005.3 1004.3
07 19.01 ЮЗ 10 27 км 3/3
[Cu med, cong]
+30.9 +21.9 59 +40 +40 очень
душно
1004.3 1003.8
09 19.01 Ю 10 н/о н/о +30.0 +21.9 62 +39 +39 очень
душно
1003.7 1002.7
10 19.01 ЮЗ 9 н/о н/о +28.9 +21.9 66 +37 +37 очень
душно
1004.5 1004.0
12 19.01 Ю 7 н/о н/о +27.6 +23.4 78 +37 +37 очень
душно
1005.5 1004.5
13 19.01 Ю 4 н/о 3/0
[]
+27.7 +23.9 80 +38 +38 очень
душно
1007.1 1006.6 +31.8
15 19.01 Ю 5 н/о н/о +27.7 +21.9 71 +36 +36 очень
душно
1007.1 1006.1
16 19.01 Ю 3 н/о 10/0
[]
+27.4 +21.4 70 +35 +35 очень
душно
1007.4 1006.9
18 19.01 Ю 5 н/о н/о +26.4 +22.4 79 +35 +35 очень
душно
1006.5 1005.5
19 19.01 Ю 6 н/о н/о +26.3 +21.3 74 +33 +33 очень
душно
1005.8 1005.3
21 19.01 Ю 5 н/о н/о +25.9 +22.2 80 +34 +34 очень
душно
1005.9 1004.9
22 19.01 ЮЗ 7 н/о н/о +25.6 +22.3 82 +33 +33 очень
душно
1005.7 1005.2
00 20.01 Ю 5 н/о н/о +26.8 +22.4 77 +35 +35 очень
душно
1007.3 1006.3
01 20.01 ЮЗ 6 н/о н/о +27.4 +22.7 76 +36 +36 очень
душно
1007.6 1007.1 +25.6

 

Местоположение метеостанции Carnarvon Airport (Западная Австралия, Австралия): широта -24.88 долгота 113.66 высота над уровнем моря 8 м.

В архиве по умолчанию представлена погода в Carnarvon Airport за последнюю неделю. Архивные данные за месяц целиком и за предыдущие месяцы, начиная с января 2011 года, Вы можете получить, выбрав интересующий диапазон дат из раскрывающегося списка и нажав кнопку "Ввод!".

Внимание! Время в таблицах - всемирное. Для получения местного времени необходимо прибавить поправку, которая в Carnarvon Airport равна 8 ч.

Смотрите также архив погоды в соседних городах и на ближайших метеорологических станциях:

Погода в Shark Bay Airport (Западная Австралия, Австралия) (114 км)
Погода в Learmonth Airport (Западная Австралия, Австралия) (298 км)
Погода в Onslow Airport (Западная Австралия, Австралия) (387 км)
Погода в Thevenard Island (Западная Австралия, Австралия) (406 км)
Погода в Geraldton Airport (Западная Австралия, Австралия) (448 км)
Погода в Paraburdoo Aero (Западная Австралия, Австралия) (457 км)
Погода в Mardie (Западная Австралия, Австралия) (475 км)
Погода в Barrow Island Airport (Западная Австралия, Австралия) (479 км)
Погода в Varanus Island (Западная Австралия, Австралия) (510 км)
Погода в Meekatharra Airport (Западная Австралия, Австралия) (526 км)

Пояснения к столбцам:

Ветер - указаны скорость ветра в м/с - средняя за 10 мин, порывы в срок и между сроками (в фигурных скобках) и направление, откуда дует ветер: С - северный, СВ - северо-восточный, В - восточный, ЮВ - юго-восточный, Ю - южный, ЮЗ - юго-западный, З - западный, СЗ - северо-западный.
Видимость - горизонтальная дальность видимости в метрах или километрах. При видимости от 1 до 10 км при отсутствии осадков обычно наблюдается дымка, при ухудшении видимости до 1 км и менее - туман. В сухую погоду видимость может ухудшаться дымом, пылью или мглою.
Явления - указаны атмосферные явления, наблюдавшиеся в срок или в последний час перед сроком; фигурными скобками обозначены явления, наблюдавшиеся между сроками (за 1-3 часа до срока); квадратными скобками обозначены град или гололедные отложения с указанием их диаметра в мм.
Облачность - указаны через наклонную черту общая и нижняя облачность в баллах и высота нижней границы облаков в метрах; квадратными скобками обозначены формы облаков: Ci - перистые, Cs - перисто-слоистые, Cc - перисто-кучевые, Ac - высококучевые, As - высокослоистые, Sc - слоисто-кучевые, Ns - слоисто-дождевые, Cu - кучевые, Cb - кучево-дождевые. Подробнее классификацию облаков см. в Атласе облаков (PDF).
T - Температура воздуха - температура, измеренная на высоте 2 м над землей.
Td - Температура точки росы - температура, при понижении до которой содержащийся в воздухе водяной пар достигнет насыщения.
f - Относительная влажность воздуха - влажноcть воздуха, измеренная на высоте 2 м над землей.
Te - Эффективная температура - температура, которую ощущает одетый по сезону человек в тени. Характеристика душности погоды. При расчете учитывается влияние влажности воздуха и скорости ветра на теплоощущения человека.
Tes - Эффективная температура на солнце - температура, которую ощущает человек, с поправкой на солнечный нагрев. Характеристика знойности погоды. Зависит от высоты солнца над горизонтом, облачности и скорости ветра. Ночью, в пасмурную погоду, а также при ветре 12 м/с и более поправка равна нулю.
P - Атмосферное давление - приведенное к уровню моря атмосферное давление.
Po - Атмосферное давление - измеренное на уровне метеостанции атмосферное давление.
Tmin - Минимальная температура - минимум температуры воздуха на высоте 2 м над землей.
Tmax - Максимальная температура - максимум температуры воздуха на высоте 2 м над землей.
R - Количество осадков - Количество выпавших осадков за период времени, мм. При наведении курсора мыши на число - период времени, за который выпало указанное количество осадков.
R24 - Количество осадков - Количество выпавших осадков за 24 часа, мм.
S - Снежный покров - Высота снежного покрова, см. При наведении курсора мыши на число - состояние снежного покрова и степень покрытия местности в баллах.